Location: Nairn
(57.5833°N, 3.8667°W)
Time: 15:59:20
(UTC+00:00)

Cosmos 2082 Rocket - Pass Details

Date: 07 August 2020
Orbit: 835 x 852 km, 71.0° (Epoch: 22 September)

Event Time Altitude Azimuth Distance (km) Brightness Sun altitude
Rises 00:00:54 0° 245° (WSW) 3,409 5.2 -16.0°
Reaches altitude 10° 00:03:30 10° 253° (WSW) 2,474 4.5 -16.0°
Maximum altitude 00:08:51 41° 323° (NW) 1,220 3.5 -16.0°
Drops below altitude 10° 00:14:12 10° 33° (NNE) 2,473 5.5 -16.1°
Sets 00:16:48 0° 41° (NE) 3,407 6.1 -16.1°
